User: anonymous   Login
Location: Pine Mountain Observatory
(43.7910°N, 120.9377°W)
Time: 03:22:27
(UTC-07:00)
Language:

Cosmos 1076 Rocket - Orbit

View from above orbital plane
View from above orbital plane
View from above satellite
View from above satellite

Ground track
Ground track

The orbit data is extracted from the following two-line orbital elements,

1 11267U 79011B   15208.36187283  .00000183  00000-0  16890-4 0  9999
2 11267 082.5265 161.5811 0017321 012.3508 347.8131 14.88602520972688
Epoch (UTC): 27 July 2015 08:41:05
Eccentricity: 0.0017321
inclination: 82.5265°
perigee height: 590 km
apogee height: 614 km
right ascension of ascending node: 161.5811°
argument of perigee: 12.3508°
revolutions per day: 14.88602520
mean anomaly at epoch: 347.8131°
orbit number at epoch: 97268

The dashed part of the orbit path shows where the satellite is in the earth's shadow,  

DLR